Regional Weather Roundup
Issued by NWS

Home | Current Version | Previous Version | Text Only | Print | Product List | Glossary Off
Versions: 1 2 3 4 5 6 7 8 9 10 11 12 13 14 15 16 17 18 19 20 21 22 23 24 25 26 27 28 29 30 31 32 33 34 35 36 37 38 39 40 41 42 43 44 45 46 47 48 49 50

000
ASUS43 KDMX 250407
RWRIA

WEATHER ROUNDUP FOR IOWA
NATIONAL WEATHER SERVICE DES MOINES IA
1000 PM CST WED DEC 24 2014

NOTE: "FAIR" INDICATES FEW OR NO CLOUDS BELOW 12,000 FEET WITH NO
SIGNIFICANT WEATHER AND/OR OBSTRUCTIONS TO VISIBILITY.

* - THESE STATIONS ARE NOT NWS STATIONS...THUS NOT UNDER NWS
QUALITY CONTROL.  THEY ALSO DO NOT REPORT WEATHER SUCH
AS PRECIPITATION OR FOG.

IAZ001>003-012>014-020>022-031>034-043>046-250500-
   NORTHWEST IOWA

CITY           SKY/WX    TMP DP  RH WIND       PRES   REMARKS
CARROLL *      CLOUDY    28  28 100 SW14      29.69F WCI  17
CHEROKEE *     CLOUDY    28  27  93 S9        29.66F WCI  20
DENISON *      CLOUDY    28  28 100 SW9G15    29.68S FOG     WCI  20
LE MARS *      CLOUDY    28  28 100 S13       29.64F FOG     WCI  18
ORANGE CITY *  CLOUDY    28  27  93 S14       29.62F FOG     WCI  17
SHELDON *      CLOUDY    27  27 100 S10G17    29.62F WCI  17
SIOUX CITY     CLEAR     28  25  88 SE9       29.65F WCI  19
SPENCER        CLOUDY    27  24  89 SW14      29.64F WCI  16
STORM LAKE *   CLOUDY    27  27 100 SW15      29.66S WCI  15
$$

IAZ055>058-069>071-079>083-090>094-250500-
   SOUTHWEST IOWA

CITY           SKY/WX    TMP DP  RH WIND       PRES   REMARKS
ATLANTIC *     CLOUDY    30  28  93 SW14      29.73S WCI  20
AUDUBON *      PTCLDY    28  23  80 SW7       29.72S HAZE    WCI  21
CLARINDA *     CLOUDY    32  28  86 S9        29.77F WCI  24
COUNCIL BLFS * CLEAR     27  27 100 S8        29.70S WCI  18
CRESTON *      CLOUDY    30  30 100 W12G17    29.74S WCI  21
HARLAN  *      CLOUDY    30  30 100 S12       29.74S WCI  21
LAMONI         CLOUDY    31  28  89 SW16      29.76F WCI  20
RED OAK *      PTCLDY    30  28  93 S9        29.74F WCI  22
SHENANDOAH *   CLEAR     30  28  93 S7        29.76S WCI  23
$$

IAZ047>049-059>061-072>074-084-250500-
   CENTRAL IOWA

CITY           SKY/WX    TMP DP  RH WIND       PRES   REMARKS
AMES           CLOUDY    30  27  88 W16       29.72S WCI  19
ANKENY *       CLOUDY    30  30 100 W12G18    29.74R WCI  21
CHARITON *     CLOUDY    32  30  93 SW9G15    29.75S WCI  24
DES MOINES     CLOUDY    32  28  85 W13       29.74R WCI  22
GRINNELL*      CLOUDY    32  28  86 SW13      29.73R WCI  22
KNOXVILLE *    CLOUDY    32  28  86 W13       29.73R WCI  22
MARSHALLTOWN   CLOUDY    31  28  89 W16       29.70R WCI  20
PELLA *        CLOUDY    32  30  93 W12G18    29.75R WCI  23
PERRY *        CLOUDY    30  30 100 W14       29.72S FOG     WCI  20
$$

IAZ004>006-015-016-023>025-035-036-250500-
   NORTH CENTRAL IOWA

CITY           SKY/WX    TMP DP  RH WIND       PRES   REMARKS
ALGONA *       CLOUDY    28  28 100 SW16G23   29.65F WCI  17
CLARION *      CLOUDY    28  28 100 W18       29.68S WCI  16
ESTHERVILLE    CLOUDY    26  25  96 SW14      29.63F WCI  14
FORT DODGE *   CLOUDY    28  25  86 W13       29.70R WCI  18
MASON CITY     CLOUDY    29  27  92 SW14      29.67R WCI  18
FOREST CITY *  CLOUDY    30  28  93 SW12      29.65F WCI  21
IOWA FALLS *   CLOUDY    30  28  93 SW15      29.71R WCI  19
$$

IAZ007>011-017>019-026>030-037>042-050>054-066-250500-
   NORTHEAST IOWA

CITY           SKY/WX    TMP DP  RH WIND       PRES   REMARKS
CEDAR RAPIDS   CLOUDY    32  31  96 W8        29.70R WCI  25
CHARLES CITY * CLOUDY    32  30  93 W9G15     29.66S WCI  24
CLINTON *      CLOUDY    36  30  80 W16       29.71R WCI  26
DECORAH *      CLOUDY    32  30  93 W10       29.64R WCI  24
DUBUQUE        CLOUDY    33  30  88 W9        29.66R WCI  25
MONTICELLO *   CLOUDY    34  32  93 W14       29.68R WCI  24
OELWEIN *      CLOUDY    32  28  86 W15       29.68S WCI  22
WATERLOO       CLOUDY    32  28  85 W13       29.69R WCI  22
$$

IAZ064-065-067-068-078-250500-
   EAST CENTRAL IOWA

CITY           SKY/WX    TMP DP  RH WIND       PRES   REMARKS
DAVENPORT      CLOUDY    34  29  82 W15       29.70R WCI  24
IOWA CITY      CLOUDY    33  30  88 W10       29.73R WCI  25
MT. PLEASANT * CLOUDY    34  28  80 W10G20    29.75R WCI  26
MUSCATINE *    CLOUDY    36  30  80 W9        29.74R WCI  29
QUAD CITIES    CLOUDY    35  29  78 W13G21    29.70R WCI  26
$$

IAZ062-063-075>077-085>089-095>099-250500-
   SOUTHEAST IOWA

CITY           SKY/WX    TMP DP  RH WIND       PRES   REMARKS
BURLINGTON     CLOUDY    35  30  82 W7        29.74R WCI  29
FAIRFIELD *    CLOUDY    34  28  80 W14       29.75R WCI  24
FORT MADISON * CLOUDY    37  32  81 W10       29.76S WCI  30
KEOKUK *       CLOUDY    36  30  80 W13       29.76S WCI  27
OSKALOOSA *    CLOUDY    32  30  93 W10       29.75R WCI  24
CENTERVILLE *  CLOUDY    32  32 100 SW10      29.77S WCI  24
OTTUMWA        CLOUDY    33  28  81 W13       29.74S WCI  24
WASHINGTON *   CLOUDY    34  32  93 W14G21    29.74R WCI  24
$$

ABBREVIATIONS USED IN REMARKS
   TC - TEMPERATURES IN CELSIUS
  WCI - WIND CHILL INDEX
   HX - HEAT INDEX
  VSB - VISIBILITY
$$




USA.gov is the U.S. government's official web portal to all federal, state and local government web resources and services.